SL-16 DEB, 23708

Orbit data source: Space-Track

SL-16 DEB, 23708 is space debris in LEO originally from a launch on Tue, 31 Oct 1995 UTC launched from the Tyuratam Missile And Space Complex (TTMTR). Debris objects in space refer to the collection of defunct objects orbiting the Earth. Examples of debris include non-operational satellites, rocket bodies, and fragments generated from explosions, collisions, or faulty payload assembly.

Loading next visibility...
SL-16 DEB details
Identifier
23708, 1995-058E
Orbit
LEO
Last TLE update9 hours ago
Origin
Flag of CISVKS (CIS)
ManufacturerYuzhnoe
MissionSpacecraft
Bus & MotorSEP MOTOR COVER, Unknown motor
Mass~0 kg wet, ~1 kg dry
Launch date (UTC)
1995-10-31 (29 years ago)
Launch vehicleUnknown
Launch site
Tyuratam Missile And Space Complex (TTMTR)
Object type
Payload
Rocket body
Debris
Shape & HBRUnknown
Radar Cross SectionSmall (<0.1 m²)

Expand to show TLE details & history

TLE from 9 hours ago
0 SL-16 DEB
1 23708U 95058E   24361.50917671  .00000331  00000-0  33668-3 0  9995
2 23708  71.0514  19.1825 0187519 304.1120 209.7294 13.76540188464110
Epoch: 2024-12-26T12:13Z
Definitive object data (Epoch: 2024-12-26T12:13:12.867Z)
Latitude25.65719°
Longitude-89.05208°
Altitude1,099.142 km
Speed7.245 km/s
True Right ascension12h 38m 57s
True Declination25° 31' 46"
Sunlit
Object was in daylight at TLE epoch
Visualization TLE readout
Latitude-71.1442°
Longitude9.72304°
Altitude886.328 km
Speed7.467 km/s
Apparent Right ascension10h 12m 22s
Apparent Declination-74° 57' 37"
Sunlit
Object is in daylight
Visualization observer readout
Local Sidereal Time20:53:31
Azimuth188.524° SSW
Elevation-53.808°
Doppler factor1
Orbital elements
Apogee altitude1,112.01 km
Perigee altitude836.272 km
Semi-major axis7,352.278 km
Eccentricity0.0187519
Inclination71.0514°
RAAN19.1825°
Arg. of periapsis304.112°
True anomaly208.68513°
Mean anomaly209.7294°
Eccentric anomaly209.20516°
Mean motion3.44279 °/min
BSTAR0.00033668
Orbital period104.57 mins
Loading maneuver chart data...
Loading historical data...
Loading historical data...
Loading historical data...
Loading historical data...
Loading historical data...
Loading historical data...
Loading historical data...

SL-16 DEB Visibility forecast

Observer location: undefined°, undefined

Span
Click to sort rows by Start time (UTC) header in descending order
Start Az.
Max El. time (UTC)
Max El. Az.
Max El.
End time (UTC)
End Az.
8 mins2024-12-27 01:32:31.773Z141.016° SSE2024-12-27 01:36:31.773Z95.322° ESE20.945°2024-12-27 01:40:31.773Z53.919° ENE
10 mins2024-12-27 03:18:31.773Z224.788° SW2024-12-27 03:22:31.773Z289.403° WNW40.071°2024-12-27 03:28:31.773Z14.266° NNE
7 mins2024-12-27 10:42:31.773Z19.088° NNE2024-12-27 10:45:31.773Z49.027° ENE17.68°2024-12-27 10:49:31.773Z86.005° E
12 mins2024-12-27 12:27:31.773Z338.057° N2024-12-27 12:33:31.773Z90.109° ESE44.928°2024-12-27 12:39:31.773Z156.84° SSE
5 mins2024-12-27 14:17:31.773Z284.151° WNW2024-12-27 14:19:31.773Z265.012° W15.393°2024-12-27 14:22:31.773Z237.134° WSW
|